Regional Weather Roundup
Issued by NWS

Home | Current Version | Previous Version | Graphics & Text | Print | Product List | Glossary Off
Versions: 1 2 3 4 5 6 7 8 9 10 11 12 13 14 15 16 17 18 19 20 21 22 23 24 25 26 27 28 29 30 31 32 33 34 35 36 37 38 39 40 41 42 43 44 45 46 47 48 49 50

000
ASUS43 KMKX 170900
RWRWI

WISCONSIN REGIONAL WEATHER ROUNDUP
NATIONAL WEATHER SERVICE MILWAUKEE/SULLIVAN WI
400 AM CDT THU APR 17 2014

NOTE: "FAIR" INDICATES FEW OR NO CLOUDS BELOW 12,000 FEET WITH NO
SIGNIFICANT WEATHER AND/OR OBSTRUCTIONS TO VISIBILITY.

WIZ001-002-006>008-014>016-023>028-171000-
NORTHWEST WISCONSIN

CITY           SKY/WX    TMP DP  RH WIND       PRES   REMARKS
SUPERIOR ARPT  LGT SNOW  30  29  96 NE13G21   30.13S WCI  20
ASHLAND        LGT SNOW  28  28 100 NE15      30.09F VSB 3/4 WCI  16
HAYWARD        LGT SNOW  29  27  92 NE6       30.03R VSB 1   WCI  23
SIREN          CLOUDY    29  27  93 NE13      30.05R WCI  19
RICE LAKE      LGT SNOW  33  32  96 N8        30.00R WCI  26
LADYSMITH      LGT SNOW  34  33  96 E7        30.00S WCI  28
EAU CLAIRE     LGT RAIN  38  36  92 NE10      29.93S WCI  31
MENOMONIE      LGT RAIN  37  37  99 N7        29.94R WCI  31
NEW RICHMOND   CLOUDY    30  30  99 N13       30.00R WCI  20
OSCEOLA        CLOUDY    30  29  96 N12       30.05R WCI  20
$$

WIZ003>005-009-010-017-018-171000-
NORTH CENTRAL WISCONSIN

CITY           SKY/WX    TMP DP  RH WIND       PRES   REMARKS
WOODRUFF       LGT SNOW  32  30  92 SE14G20   30.03S VSB 3/4 WCI  22
RHINELANDER    LGT SNOW  30  29  96 E14       30.04F VSB 1   WCI  19
EAGLE RIVER    SNOW      30  30  99 E12       30.05F VSB 1/2 WCI  20
LAND O LAKES   SNOW      30  29  96 SE13G18   30.07F VSB 1/2 WCI  20
PHILLIPS       LGT SNOW  31  30  96 SE9       30.00S VSB 1   WCI  23
TOMAHAWK       LGT SNOW  31  30  94 CALM      30.02S
MEDFORD        LGT SNOW  32  32  97 E16       29.97S WCI  22
MERRILL        CLOUDY    32  31  96 CALM      30.00F
$$

WIZ029-030-035-036-043>047-171000-
CENTRAL WISCONSIN

CITY           SKY/WX    TMP DP  RH WIND       PRES   REMARKS
WAUSAU         CLOUDY    34  31  88 SE17      29.99S WCI  23
MOSINEE        CLOUDY    34  32  93 E14G20    30.00S WCI  24
MARSHFIELD     CLOUDY    38  30  73 SE8       29.96S WCI  32
STEVENS POINT  CLOUDY    36  28  73 E15       30.00S WCI  27
WAUPACA        CLOUDY    41  30  65 E15G22    30.03F
WAUTOMA        NOT AVBL
WISC RAPIDS    CLOUDY    41  28  60 SE9       29.98F
CAMP DOUGLAS   CLOUDY    43  32  65 SE14      29.93F
$$

WIZ011>013-019>022-031-037>040-048>050-171000-
NORTHEAST WISCONSIN

CITY           SKY/WX    TMP DP  RH WIND       PRES   REMARKS
ANTIGO         LGT SNOW  31  30  96 E20       30.04F WCI  18
STURGEON BAY   CLOUDY    37  27  65 SE17G25   30.17F WCI  28
GREEN BAY      FLURRIES  37  31  78 SE21G32   30.14R WCI  26
MANITOWOC      NOT AVBL
APPLETON       CLOUDY    36  32  87 SE18      30.07F WCI  25
CLINTONVILLE   CLOUDY    36  32  87 SE10      30.07F WCI  28
OSHKOSH        CLOUDY    39  29  67 SE17      30.04F WCI  30
$$

WIZ032>034-041-042-053>061-171000-
SOUTHWEST WISCONSIN

CITY           SKY/WX    TMP DP  RH WIND       PRES   REMARKS
LA CROSSE      CLOUDY    49  29  46 S13       29.87S
SPARTA         CLOUDY    46  29  51 SE16G22   29.91S
VIROQUA        CLOUDY    44  29  56 S16G22    29.89S
BOSCOBEL       MOCLDY    48  28  46 S12G20    29.93F
PRAIRIE DU CHI CLOUDY    47  29  50 S9G17     29.92R
PLATTEVILLE    FAIR      44  29  57 S16G23    29.97S
$$

WIZ056-057-062-063-064-067-068-171000-
SOUTH CENTRAL WISCONSIN

CITY           SKY/WX    TMP DP  RH WIND       PRES   REMARKS
BARABOO/DELLS  CLOUDY    43  28  55 S22       29.96F
LONE ROCK      NOT AVBL
WATERTOWN      CLOUDY    42  27  57 SE12G17   30.04F
MADISON        CLOUDY    45  28  51 S15G25    30.00F
MIDDLETON      PTSUNNY   45  26  48 S18G26    29.99F
MONROE         MOCLDY    40  30  66 S15       30.00S WCI  32
JANESVILLE     CLOUDY    45  27  49 S17G25    30.03F
$$

WIZ051-052-058>065-066-070>072-171000-
SOUTHEAST WISCONSIN

CITY           SKY/WX    TMP DP  RH WIND       PRES   REMARKS
MILWAUKEE      CLOUDY    40  30  67 SE16      30.12F WCI  31
WAUKESHA       CLOUDY    37  28  70 SE12      30.10F WCI  30
MILWAUKEE/TIMM CLOUDY    41  27  56 SE12G21   30.12S
RACINE         CLOUDY    40  29  64 SE16G26   30.14F WCI  31
BURLINGTON     CLOUDY    41  26  55 S12       30.09F
KENOSHA        CLOUDY    41  30  65 SE14      30.11F
FOND DU LAC    CLOUDY    40  28  62 SE21G30   30.05F WCI  30
SHEBOYGAN      CLOUDY    37  29  72 SE13G23   30.15S WCI  29
WEST BEND      CLOUDY    37  28  70 SE13G21   30.10F WCI  29
JUNEAU         CLOUDY    41  25  52 SE17      30.05F
$$

LSZ147-162-171000-
LAKE SUPERIOR

STATION/POSITION TIME  TEMP    WIND        PRES    WAVE
                       AIR SEA DIR/SP/G            HT/PER
                 (UTC) (F)     (DEG/KT/KT) (MB)    (FT/S)
DEVILS ISLAND    0800   30      60/ 32/ 39 1021.5F
PORT WING        0800   29      50/ 21     1020.0S
SAXON HARBOR     0800           50/ 12/ 14 1019.0F
$$

LMZ867-665-643>646-171000-
LAKE MICHIGAN

STATION/POSITION TIME  TEMP    WIND        PRES    WAVE
                       AIR SEA DIR/SP/G            HT/PER
                 (UTC) (F)     (DEG/KT/KT) (MB)    (FT/S)
NORTHPORT PIER   0800   35     130/ 12/ 14 1023.4F
SISTER BAY       0823   37     130/ 16/ 22   N/A
SHEBOYGAN LAKESH 0800   38     130/ 25/ 28 1021.4F
PORT WASHINGTON  0840   38     150/  9/ 15 1021.3S
MILWAUKEE LAKESH 0800   39     150/ 14/ 17   N/A
KENOSHA   LAKESH 0800   39     150/ 21/ 22   N/A
$$

TC  - TEMPERATURE IN CELSIUS
VSB - VISIBILITY IN STATUTE MILES
WCI - WIND CHILL INDEX
HX  - HEAT INDEX




USA.gov is the U.S. government's official web portal to all federal, state and local government web resources and services.